User: anonymous   Login
Location: Tauranga
(37.6860°S, 176.1670°E)
Time: 20:44:21
(UTC+13:00)
Language:

Cosmos 1869 Rocket - Orbit

View from above orbital plane
View from above orbital plane
View from above satellite
View from above satellite

Ground track
Ground track

The orbit data is extracted from the following two-line orbital elements,

1 18215U 87062B   19293.86716833 +.00000062 +00000-0 +45894-5 0  9999
2 18215 082.5154 201.5759 0020374 181.7063 225.6764 14.83198587721719
Epoch (UTC): 20 October 2019 20:48:43
Eccentricity: 0.0020374
inclination: 82.5154°
perigee height: 605 km
apogee height: 633 km
right ascension of ascending node: 201.5759°
argument of perigee: 181.7063°
revolutions per day: 14.83198587
mean anomaly at epoch: 225.6764°
orbit number at epoch: 72171

The dashed part of the orbit path shows where the satellite is in the earth's shadow,  

DLR